Regional Weather Roundup
Issued by NWS Charleston, WV

Home | Current Version | Previous Version | Graphics & Text | Print | Product List | Glossary On
Versions: 1 2 3 4 5 6 7 8 9 10 11 12 13 14 15 16 17 18 19 20 21 22 23 24 25 26 27 28 29 30 31 32 33 34 35 36 37 38 39 40 41 42 43 44 45 46 47 48 49 50
188
ASUS41 KRLX 041410
RWRRLX
West Virginia Regional Weather Roundup
National Weather Service Charleston WV
1000 AM EDT WED MAY 04 2016

Note: "fair" indicates few or no clouds below 12,000 feet with no
significant weather and/or obstructions to visibility.

WVZ003-041500-
Northern Panhandle of West Virginia

CITY           SKY/WX    TMP DP  RH WIND       PRES   REMARKS
WHEELING       CLOUDY    53  48  83 CALM      29.71F
$$

WVZ009-041500-
Northwest West Virginia

CITY           SKY/WX    TMP DP  RH WIND       PRES   REMARKS
PARKERSBURG    PTSUNNY  N/A N/A N/A W3        29.75F
$$

WVZ006-041500-
Western West Virginia

CITY           SKY/WX    TMP DP  RH WIND       PRES   REMARKS
HUNTINGTON       N/A     59  49  69 SW6       29.74F
$$

WVZ015-041500-
West Central West Virginia

CITY           SKY/WX    TMP DP  RH WIND       PRES   REMARKS
CHARLESTON     LGT RAIN  54  50  86 SW5       29.74F
$$

WVZ022-031-041500-
North Central West Virginia

CITY           SKY/WX    TMP DP  RH WIND       PRES   REMARKS
CLARKSBURG     CLOUDY    53  49  86 W3        29.72R
MORGANTOWN     CLOUDY    52  47  83 NE3       29.72F FOG
$$

WVZ025-035-042-045-041500-
Southern West Virginia

CITY           SKY/WX    TMP DP  RH WIND       PRES   REMARKS
BECKLEY        CLOUDY    50  44  80 W8        29.75F
LOGAN          NOT AVBL
BLUEFIELD      RAIN      46  42  86 W16G22    29.77R FOG
LEWISBURG      CLOUDY    50  46  84 SW6       29.74F
$$

WVZ047-041500-
Northern Mountains of West Virginia

CITY           SKY/WX    TMP DP  RH WIND       PRES   REMARKS
ELKINS         CLOUDY    52  47  83 CALM      29.73S
$$

WVZ052-041500-
Eastern Panhandle of West Virginia

CITY           SKY/WX    TMP DP  RH WIND       PRES   REMARKS
MARTINSBURG    PTSUNNY   60  51  72 VRB3      29.70F
PETERSBURG     CLOUDY    55  51  85 CALM      29.72S
$$




USA.gov is the U.S. government's official web portal to all federal, state and local government web resources and services.